Location: Oakland
(41.0130°N, 74.2650°W)
Time: 23:32:33
(UTC-04:00)

Daily predictions for brighter satellites

Satellite Brightness Start Highest point End
(mag) Time Altitude Azimuth Time Altitude Azimuth Time Altitude Azimuth
Cosmos 2369 Rocket 2.8 20:51:42 10° N 20:57:05 42° ENE 21:02:23 10° SE
Cosmos 1666 3.5 20:57:47 10° NNW 21:01:37 53° W 21:05:23 10° S
COSMOS 2455 2.9 20:56:03 10° SSW 21:02:04 87° ESE 21:08:07 10° NNE
ERS-1 Rocket 3.0 20:59:19 10° SSE 21:04:19 85° ENE 21:09:23 10° NNW
CZ-4 DEB 4.3 21:03:32 10° SSW 21:06:31 35° W 21:09:33 10° NNW
BREEZE-M DEB (TANK) 3.1 21:09:25 10° WNW 21:11:43 29° SW 21:13:40 10° SSE
YAOGAN 6 4.4 21:09:25 10° ESE 21:12:08 19° ENE 21:14:53 10° NNE
GRACE-1 3.8 21:11:51 10° N 21:14:43 77° E 21:17:34 10° S
SJ-11-01 4.4 21:10:19 10° SSE 21:14:58 83° WSW 21:19:41 10° NNW
GRACE-2 3.8 21:12:18 10° N 21:15:10 78° E 21:18:00 10° S
Envisat 3.1 21:17:23 10° SSE 21:22:24 67° ENE 21:27:28 10° N
GEOS 3 Rocket 3.8 21:18:20 10° SSE 21:23:36 75° SW 21:28:50 10° NW
Cosmos 407 Rocket 3.8 21:20:09 10° S 21:25:09 47° ESE 21:30:09 10° NNE
Cosmos 2263 4.4 21:27:04 10° NNW 21:32:38 59° ENE 21:37:05 16° SE
Cosmos 1515 3.8 21:29:58 10° S 21:33:50 83° W 21:37:43 10° N
CZ-2C R/B 3.1 21:32:38 10° SW 21:34:17 17° W 21:35:56 10° NW
MetOp-A 4.3 21:31:36 13° SSE 21:36:14 61° ENE 21:41:31 10° N
SL-27 R/B 3.8 21:36:56 19° ESE 21:37:31 20° E 21:40:01 10° NE
UNK 4.3 21:33:23 10° NNE 21:38:52 62° ESE 21:44:37 10° S
Cosmos 1825 Rocket 3.5 21:34:32 10° S 21:38:58 76° E 21:43:23 10° N
Cosmos 1066 Rocket 4.2 21:36:12 10° S 21:41:54 76° E 21:47:44 10° NNE
COSMOS 2406 4.2 21:39:25 16° SE 21:42:38 26° ESE 21:47:17 10° NE
Cosmos 1954 Rocket 4.4 21:41:49 11° S 21:46:38 42° ESE 21:51:37 10° NNE
Cosmos 1943 Rocket 2.8 21:41:26 10° N 21:46:42 42° ENE 21:50:21 19° ESE
Lacrosse 4 Rocket 1.5 21:44:11 10° SSW 21:48:13 74° WNW 21:52:20 10° NNE
Cosmos 2084 4.2 21:50:38 10° NNW 21:54:35 41° NE 21:56:59 21° ESE
Atlas Centaur 2 3.5 21:49:14 10° WSW 21:55:36 35° S 22:00:12 20° SE
SeaSat 1 2.5 21:52:49 21° SE 21:56:09 76° ENE 22:01:06 10° NNW
Meteor 1-22 Rocket 4.2 21:52:04 10° N 21:57:45 83° E 22:02:15 18° SSE
Cosmos 1943 3.8 21:52:44 10° SW 21:58:19 59° WNW 22:03:58 10° NNE
H-2A R/B 3.8 21:54:39 10° SSW 21:58:24 29° W 22:02:15 10° NW
ISS -0.4 21:56:42 10° WNW 21:59:11 20° NNW 22:01:40 10° NNE
CZ-4C R/B 4.2 22:00:19 25° ESE 22:02:03 36° ENE 22:05:42 10° N
SL-23 DEB 4.3 22:00:39 10° SW 22:07:30 86° SE 22:11:27 10° NE
CZ-4B R/B 3.6 22:08:33 10° NNE 22:13:42 80° WNW 22:18:55 10° SSW
CZ-4 R/B 3.9 22:09:37 10° NNE 22:14:39 74° ESE 22:18:13 19° S
Cosmos 1953 2.8 22:12:15 10° N 22:16:05 42° E 22:17:07 34° ESE
PSLV R/B 3.3 22:16:55 10° W 22:20:27 72° SSW 22:21:15 49° SE
Terra 2.6 22:19:03 27° ESE 22:20:50 37° ENE 22:25:12 10° N
ARGOS 3.1 22:18:01 26° SSE 22:21:11 87° ENE 22:26:39 10° NNW
ATLAS 3B R/B 3.6 22:15:46 10° SW 22:23:21 59° NW 22:30:46 10° NNE
Cosmos 1346 Rocket 4.1 22:20:06 10° SSW 22:23:46 39° WNW 22:27:30 10° N
SPOT 5 4.1 22:21:02 12° SSW 22:24:28 31° W 22:28:19 10° NW
USA 245 4.3 22:21:15 22° S 22:25:00 68° WSW 22:29:47 10° NNW
Cosmos-2242 3.0 22:22:03 10° N 22:26:28 73° E 22:28:01 39° SSE
Cosmos 1850 Rocket 4.2 22:24:44 31° SSE 22:26:47 48° ESE 22:31:47 10° NNE
Cosmos 1842 3.2 22:25:38 34° S 22:27:16 90° SSW 22:31:12 10° N
Cosmos 1140 Rocket 3.4 22:26:31 25° S 22:29:36 68° ESE 22:34:49 10° NNE
Cosmos 1570 Rocket 4.2 22:26:51 10° NNW 22:32:11 62° ENE 22:34:19 35° SE
H-2A R/B 2.2 22:33:42 36° SE 22:35:32 58° ENE 22:40:34 10° N
NOSS 3-2 (A) 4.1 22:35:29 31° SE 22:36:29 33° ESE 22:42:10 10° NE
Lacrosse 5 4.4 22:35:02 10° NNW 22:38:05 16° NNE 22:41:08 10° NE
Cosmos 1607 3.9 22:32:57 13° SSW 22:38:39 68° ESE 22:44:49 10° NE
SL-8 R/B 3.9 22:34:02 10° WNW 22:38:51 66° NNE 22:41:05 31° E
Cosmos 2369 Rocket 3.8 22:36:11 10° NW 22:40:51 27° WSW 22:44:35 14° SSW
USA 234 3.3 22:37:09 28° SE 22:40:55 81° NE 22:47:30 10° NW
SPOT 1/Viking Rocket 4.4 22:41:54 22° SSW 22:44:52 44° W 22:49:48 10° NNW
YAOGAN 6 4.4 22:43:54 20° SW 22:45:33 27° W 22:48:47 10° NW
Cosmos 2279 Rocket 4.4 22:40:14 10° NNW 22:46:23 61° W 22:50:14 24° SSW
Cosmos 614 Rocket 3.9 22:48:02 42° SSE 22:49:40 64° ESE 22:54:50 10° NNE
SL-08 RB Rocket 4.3 22:51:27 32° SSW 22:53:09 49° W 22:57:33 10° NNW
SAR-Lupe-2 3.5 22:58:16 74° WSW 22:58:22 75° WSW 23:01:58 10° NNW
Spot 2 4.3 22:54:07 10° NNE 22:59:02 79° ESE 23:00:35 46° S
Cosmos 1340 3.3 23:00:50 43° ENE 23:00:50 43° ENE 23:03:57 10° NNE
Meteor 2-5 Rocket 4.0 23:00:28 42° SE 23:01:52 52° E 23:07:26 10° NNE
Cosmos 1544 3.2 22:58:18 10° N 23:01:55 65° ENE 23:01:55 65° ENE
CARTOSAT-1 3.6 23:02:00 57° SSW 23:02:47 75° WSW 23:07:07 10° NNW
CZ-4C R/B 2.3 23:03:35 46° SE 23:03:57 46° ESE 23:09:30 10° NE
Cosmos 1758 4.0 23:00:47 10° NNW 23:04:46 49° W 23:05:36 42° SW
Okean 3 Rocket 3.7 23:08:05 56° E 23:08:08 56° E 23:12:29 10° NNE
USA 238 DEB 4.2 23:03:52 10° SW 23:10:54 63° NW 23:17:55 10° NNE
USA 238 4.2 23:03:58 10° SW 23:10:59 64° NW 23:18:01 10° NNE
DMSP B5D2-2 4.1 23:10:55 10° N 23:16:12 76° WNW 23:18:08 40° SSW
Cosmos 1470 2.8 23:15:42 10° N 23:19:20 75° NNE 23:19:20 75° NNE
Cosmos 1805 4.3 23:16:24 10° NNW 23:20:01 36° W 23:20:29 34° WSW
IGS 5A 3.8 23:19:53 53° WSW 23:20:13 54° W 23:24:19 10° NNW
COSMOS 2487 3.1 23:24:51 54° NW 23:24:51 54° NW 23:28:14 10° N
COSMOS 2406 4.2 23:21:23 11° SW 23:26:39 45° WNW 23:32:10 10° NNE
CENTAUR R/B 4.4 23:29:35 13° E 23:29:35 13° E 23:31:26 10° ENE
Cosmos 1943 Rocket 3.6 23:25:37 10° NW 23:30:12 27° WSW 23:31:53 23° SW
ALOS 2 4.2 23:32:11 23° ENE 23:32:26 23° ENE 23:35:52 10° NNE
Cosmos 1842 Rocket 4.4 23:28:25 10° NNW 23:32:33 40° W 23:33:08 38° WSW
Cosmos 1818 4.0 23:27:50 10° NNW 23:33:13 55° NE 23:34:29 44° E
Cosmos 2082 Rocket 3.5 23:34:49 24° E 23:34:49 24° E 23:38:34 10° NE
Cosmos 1833 Rocket 4.4 23:35:46 18° E 23:35:46 18° E 23:38:40 10° ENE
ISS 0.0 23:34:59 10° NNW 23:36:35 13° N 23:38:11 10° NNE
CZ-4B R/B 3.8 23:37:33 18° ENE 23:37:33 18° ENE 23:39:43 10° NNE
Cosmos 1656 Rocket 4.1 23:31:43 10° NNW 23:37:12 51° WSW 23:38:15 45° SW
NOSS 3-3 (A) 4.5 23:29:54 10° NNW 23:37:21 77° NE 23:40:25 41° SE
NOSS 3-3 (C) 4.5 23:30:01 10° NNW 23:37:28 76° NE 23:40:33 41° SE
Cosmos 1417 Rocket 4.5 23:35:50 10° N 23:41:56 67° E 23:43:09 54° SE
H-2A R/B 4.2 23:39:49 10° NE 23:41:37 21° ENE 23:41:37 21° ENE
Atlas Centaur 2 4.2 23:38:30 10° WSW 23:42:50 23° SW 23:42:50 23° SW
NOSS 3-2 (C) 3.4 23:43:08 48° SSW 23:45:00 83° ESE 23:51:40 10° NE
Cosmos 1553 Rocket 4.3 23:40:17 10° N 23:46:33 55° E 23:47:54 47° ESE
Cosmos 1707 3.4 23:50:19 51° NW 23:50:19 51° NW 23:53:48 10° N
Cosmos 1378 4.4 23:56:29 36° NE 23:56:29 36° NE 23:58:57 10° NNE
Cosmos 1076 Rocket 3.8 23:56:04 63° NNE 23:56:04 63° NNE 23:59:41 10° N
Lacrosse 5 rocket 4.3 23:55:12 10° NNW 23:57:33 14° NNE 23:59:58 10° NE
